sat.trackr.live / text

‹ back to catalog

STARLINK-37032

NORAD 68181 · 2026-050Q

PAYLOAD ACTIVE UNKNOWN

§ Identity

Operator
Country
US
Launch date
2026-03-14
Launch site
AFETR
Launch vehicle
Mass (kg)
RCS (m²)

Purposes: comms

External: N2YO · Heavens-Above · Gunter

§ Orbital elements

Epoch: 2026-09-19T21:33:01.413792Z

Period
93.85 min
Inclination
53.1595°
Eccentricity
0.0000786
Mean motion
15.34412296 rev/d
Perigee alt
462.1 km
Apogee alt
463.2 km
Semi-major
6,840.8 km
B*
6.6827e-4
RAAN
80.6776°
Arg perigee
74.7037°
Mean anomaly
285.4053°
Rev number
3,047

§ Raw data

STARLINK-370321 68181U 26050Q   26262.89793303  .00022278  00000+0  66827-3 0  99992 68181  53.1595  80.6776 0000786  74.7037 285.4053 15.34412296 30475

JSON: /api/v1/satellites/68181 · /tle

For live sub-satellite position, see the globe view (requires WebGL).

§ Visibility from observer

Set your observer location to see the next 7 days of passes ≥ 10°. The values pass through the URL so the page stays shareable.

No JS? Fill the form by hand. The geolocation button needs JavaScript.